Temperature
17 16 16 16 16 16 16 16 16 16 16 16 16 16 15 15 15 15 15 15 15 15 15 15 15 15 15 15 15 14 14 14 14 14 14 14 14 14 14 14 14 14 14
16 16 16 16 16 16 16 15 15 15 15 15 15 15 15 15 15 15 15 15 15 15 15 15 15 14 15 14 14 14 14 14 14 14 14 14 14 14 14 14 14 14 14
16 16 16 16 16 16 15 15 15 15 15 15 15 15 15 15 15 14 14 14 14 14 14 14 14 14 14 14 14 14 14 14 14 14 14 14 14 14 13 14 14 13 14
16 16 16 15 16 15 15 15 15 15 15 15 15 15 14 14 14 14 14 14 14 14 14 14 14 14 14 14 14 14 14 14 14 13 13 13 13 13 13 13 13 13 13
16 15 15 15 15 15 15 15 15 15 14 14 14 14 14 14 14 14 14 14 14 14 14 14 14 14 14 13 13 13 13 13 13 13 13 13 13 13 13 13 13 13 13
15 15 15 15 15 14 14 14 14 14 14 14 14 14 14 14 14 14 14 14 14 14 14 13 13 13 13 13 13 13 13 13 13 13 13 13 13 13 13 12 12 12 12
15 15 15 15 14 14 14 14 14 14 14 14 14 14 14 14 14 13 13 13 13 13 13 13 13 13 13 13 13 13 13 13 13 13 12 13 13 13 12 12 12 12 12
14 14 14 14 14 14 14 14 14 14 14 14 13 13 13 13 13 13 13 13 13 13 13 13 13 13 13 13 13 12 12 12 12 12 12 12 12 12 12 12 12 12 12
14 14 14 14 14 13 13 13 13 13 13 13 13 13 13 13 13 13 13 13 13 13 13 13 12 12 12 12 12 12 12 12 12 12 12 12 12 12 12 12 12 12 12
13 13 13 13 13 13 13 13 13 13 13 13 13 13 13 13 13 13 12 12 12 12 12 12 12 12 12 12 12 12 12 12 12 12 12 12 12 12 12 12 12 11 11
13 13 13 13 13 13 13 13 13 12 12 13 13 13 12 12 12 12 12 12 12 12 12 12 12 12 12 12 12 12 12 12 12 12 12 12 12 12 12 12 12 11 11
13 13 12 12 12 12 12 12 12 12 12 12 12 12 12 12 12 12 12 12 12 12 12 12 12 12 12 12 11 12 11 11 11 11 12 11 12 12 12 12 11 11 11
12 12 12 12 12 12 12 12 12 12 12 12 12 12 12 12 12 12 12 12 11 11 11 11 11 11 11 11 11 11 11 11 11 11 11 11 11 11 11 11 11 11 11
12 12 12 12 12 12 12 12 12 12 12 12 12 12 12 12 12 12 12 11 11 11 11 11 11 11 11 11 11 11 11 11 11 11 11 11 11 11 11 11 11 11 10
11 11 11 11 11 11 11 11 12 12 12 12 12 12 12 12 12 11 11 11 11 11 11 11 11 10 10 10 10 10 10 10 10 11 11 11 11 11 11 10 10 10 10
11 11 11 11 11 11 11 11 11 11 11 11 11 11 11 11 11 11 11 11 11 10 10 10 10 10 10 10 10 10 10 10 10 10 10 10 10 10 10 10 10 10 10
11 11 11 11 11 11 11 11 11 11 11 11 11 11 11 11 11 11 11 10 10 10 10 10 10 10 10 10 10 10 10 10 10 10 10 10 10 10 10 10 10 10 10
11 11 10 11 11 11 11 11 11 11 11 11 11 11 11 11 11 11 10 10 10 10 10 10 9 9 9 9 9 9 9 9 9 9 9 9 9 9 9 9 10 10 9
11 10 10 10 11 11 10 10 10 10 10 11 11 11 11 10 10 10 10 10 10 10 10 9 9 9 9 9 9 9 9 9 9 9 9 9 9 9 9 9 9 9 9
10 10 10 10 10 10 10 10 10 10 10 10 10 10 10 10 10 10 10 10 9 9 9 9 9 9 9 9 9 9 9 9 9 9 9 8 8 8 8 8 8 8 8
10 10 10 10 10 10 10 10 10 10 10 10 10 10 10 10 10 9 9 9 9 9 9 9 9 9 9 8 8 8 8 8 8 8 8 8 8 8 8 8 8 8 8
10 10 10 10 10 10 10 10 10 10 10 10 10 9 9 9 9 9 9 9 9 9 9 8 8 8 8 8 8 8 8 8 8 8 8 7 7 7 7 7 7 7 7
10 10 10 10 10 10 10 10 10 10 10 9 9 9 9 9 9 9 9 9 9 8 8 8 8 8 8 8 8 8 8 8 7 7 7 7 7 7 7 7 7 7 7
9 9 9 9 9 9 9 9 9 9 9 9 9 9 9 9 8 8 8 8 8 8 8 8 8 8 7 7 7 7 7 7 7 7 7 7 6 6 6 6 6 6 6
9 9 9 9 9 9 9 9 9 9 9 9 9 9 8 8 8 8 8 8 8 8 8 8 7 7 7 7 7 7 7 7 7 6 6 6 6 6 6 6 6 6 6
9 9 9 9 9 9 9 9 9 9 9 8 8 8 8 8 8 8 8 7 7 7 7 7 7 7 7 7 7 7 7 6 6 6 6 6 6 6 6 6 6 6 6
Wind_Speed
5 4 4 3 3 3 3 3 3 3 3 3 3 3 3 3 3 2 3 2 2 2 2 2 3 2 2 2 2 2 2 3 3 3 2 1 1 2 2 3 4 5 6
5 5 5 4 4 3 3 3 3 3 3 3 3 3 3 3 3 3 4 3 3 3 3 2 3 2 2 2 2 2 3 3 3 3 2 1 2 3 3 3 3 5 5
5 5 4 4 4 4 4 3 3 3 3 2 3 3 3 3 3 3 4 4 4 4 3 3 3 3 3 2 3 3 3 3 2 3 3 2 2 2 1 2 3 3 5
5 5 4 4 4 4 4 3 3 3 3 3 3 3 3 3 3 3 3 3 3 4 4 4 4 4 4 4 3 4 3 2 2 2 2 2 2 2 1 2 2 2 3
5 5 5 4 3 3 3 3 3 3 3 3 2 2 3 3 3 3 3 3 3 4 3 3 4 4 4 4 3 4 4 3 2 2 2 2 2 2 3 2 3 3 3
5 5 4 4 3 3 3 3 3 2 2 2 2 2 3 3 4 4 3 3 3 3 4 4 3 3 4 4 5 5 5 5 5 4 3 4 5 4 3 3 2 2 3
4 4 4 4 4 4 3 3 3 3 2 2 2 2 3 3 4 4 4 3 3 3 3 3 3 2 2 2 3 4 5 6 7 6 6 6 6 6 5 4 4 4 5
2 2 3 3 3 3 3 3 3 3 3 3 2 2 2 2 2 3 3 2 2 2 3 3 3 2 3 3 2 2 3 4 6 5 6 7 7 6 6 6 6 4 4
1 2 2 3 3 3 3 3 3 2 2 2 2 2 2 2 3 3 2 1 1 2 2 2 2 3 4 4 3 3 3 4 5 6 7 8 9 9 7 3 3 3 4
3 2 2 2 3 3 3 2 2 2 2 1 1 2 2 3 3 3 3 2 1 2 1 2 3 3 4 3 3 3 4 5 4 4 4 5 5 6 7 7 6 5 4
2 2 2 2 2 2 2 2 2 2 1 1 1 1 2 3 3 4 4 2 2 2 2 2 3 4 5 5 4 4 6 5 4 4 4 4 3 3 4 5 7 7 6
3 2 1 1 1 1 1 1 1 2 2 1 1 2 2 2 3 3 4 3 3 2 3 3 3 5 5 5 4 6 6 5 3 3 3 4 4 4 5 5 6 7 8
3 2 2 1 0 1 2 1 1 1 2 2 2 2 2 2 2 3 3 3 2 2 2 4 4 5 5 4 5 6 4 2 2 3 4 4 4 5 4 3 4 4 4
3 2 2 2 1 0 1 1 2 2 2 2 2 3 2 2 2 1 1 1 1 1 2 2 3 3 3 4 4 3 2 3 3 3 4 4 3 3 3 3 3 3 2
3 3 2 2 3 2 1 1 2 3 4 4 4 4 3 3 4 5 3 2 2 2 1 1 1 2 2 2 2 2 2 1 2 2 3 3 3 3 4 3 3 3 3
3 3 3 2 2 2 2 1 2 1 3 4 5 5 4 5 6 5 4 4 3 3 2 0 1 1 2 2 2 2 2 2 2 2 2 3 3 3 3 3 3 3 4
4 4 3 3 3 3 3 2 1 3 3 3 3 5 5 5 4 4 3 2 2 3 2 1 1 2 2 2 2 1 2 2 2 2 2 3 2 2 2 3 3 3 4
3 4 4 4 4 4 4 3 3 3 2 2 3 4 4 4 4 3 3 4 2 1 1 1 1 1 1 2 2 2 2 2 2 2 2 2 2 2 2 2 2 2 3
3 3 3 3 3 4 4 3 3 3 2 2 1 1 2 2 2 2 4 3 2 1 1 1 1 1 1 1 1 2 2 2 2 2 2 2 2 1 2 2 2 2 2
3 4 3 2 2 3 3 3 3 3 3 2 2 2 2 2 2 1 1 2 2 2 1 1 1 0 0 1 1 1 2 2 2 2 2 2 2 1 2 2 2 2 2
2 2 3 2 2 2 2 3 3 3 3 3 3 3 5 4 3 3 2 2 2 2 1 1 1 0 0 1 1 2 1 2 2 2 2 2 2 2 2 2 2 2 2
2 2 2 2 2 2 2 3 3 3 4 4 2 2 5 3 3 2 2 2 2 2 2 2 1 1 1 1 0 1 1 2 2 2 2 2 1 2 2 2 2 2 2
1 1 1 2 2 2 2 2 2 2 3 3 3 2 3 3 3 3 2 2 2 2 1 1 1 1 0 0 0 0 1 2 2 1 1 1 2 2 2 2 3 3 3
2 2 2 1 1 2 1 1 2 2 3 3 3 2 2 3 3 2 2 1 1 1 1 1 1 1 0 1 1 1 2 2 2 2 2 1 1 2 2 2 3 3 3
1 1 1 1 2 2 1 1 1 2 2 3 3 2 2 2 2 2 2 1 1 1 0 1 0 1 1 1 2 2 2 2 1 1 1 1 1 1 2 3 3 3 3
1 1 1 1 2 2 2 2 2 2 2 2 3 3 3 3 2 2 2 2 1 1 1 0 1 1 2 2 3 2 2 2 2 2 1 1 1 1 2 2 3 3 3
Wind_Direction
158 154 150 152 162 157 168 181 179 180 185 188 196 188 185 193 195 187 217 226 221 238 231 204 223 206 200 200 181 172 179 171 207 266 271 262 201 227 243 228 230 227 236
167 157 159 161 163 165 184 195 188 189 197 199 189 179 183 183 184 187 210 222 218 229 236 222 236 218 208 204 192 194 198 189 188 236 274 262 230 227 223 226 233 237 240
161 157 158 162 166 180 194 194 189 190 196 195 178 182 189 186 187 198 204 214 215 218 219 219 231 216 229 227 209 210 213 210 191 203 248 253 254 247 249 259 247 243 249
160 159 165 179 185 189 189 188 191 189 187 187 186 191 194 192 197 204 208 212 219 228 225 222 223 211 219 224 220 214 207 203 197 201 236 254 257 261 219 246 272 264 260
167 172 186 189 185 181 185 190 189 190 193 190 191 201 198 197 211 205 211 218 221 230 237 234 224 225 228 219 220 212 202 202 202 209 231 254 261 250 238 233 249 270 269
171 180 183 175 180 186 191 185 177 188 196 185 193 201 204 218 222 208 202 217 225 226 236 244 241 239 245 238 232 224 209 205 209 214 230 235 241 234 229 225 225 251 271
178 182 179 173 179 192 196 182 190 197 193 199 210 206 210 229 223 216 218 204 217 228 229 232 245 250 236 244 260 252 241 230 215 212 222 234 234 225 214 224 222 221 236
174 180 184 178 184 186 180 188 204 207 207 209 213 208 205 234 219 211 218 201 217 233 229 218 214 234 247 223 237 260 258 258 242 227 226 234 235 228 213 214 218 230 256
166 201 192 177 176 185 199 208 207 201 213 215 214 201 209 240 221 213 196 193 235 259 255 234 215 229 248 227 212 239 266 280 276 256 249 248 241 234 217 203 210 212 251
184 208 198 181 174 185 201 211 207 195 209 210 216 204 207 229 232 217 187 176 226 267 296 282 255 248 261 240 217 224 248 265 279 290 283 277 258 243 224 206 204 210 225
186 170 174 186 192 190 186 187 183 191 191 189 213 243 224 223 228 222 203 184 203 228 258 273 272 268 264 256 241 234 243 254 263 264 270 276 274 258 238 219 207 204 212
155 151 171 207 198 177 159 182 185 177 179 192 212 268 269 247 232 240 232 217 205 207 241 256 265 273 267 263 260 259 260 263 259 262 263 264 261 257 252 238 227 222 222
145 167 181 190 189 166 171 189 208 199 198 217 216 233 264 265 252 249 245 237 231 223 250 259 270 272 273 269 266 269 270 260 254 257 259 262 258 254 252 250 247 238 243
168 181 188 179 178 207 188 184 186 204 207 213 219 230 244 245 246 252 254 249 251 266 286 292 293 288 291 286 288 282 256 240 234 246 258 267 271 269 257 237 233 232 237
179 185 194 193 184 183 201 217 207 217 207 206 215 205 203 227 235 215 198 216 218 231 237 354 353 334 320 308 300 295 291 287 271 270 269 276 274 270 260 240 225 217 220
180 191 198 202 195 185 181 322 339 241 243 226 213 202 218 223 214 208 215 223 213 183 138 142 291 298 295 296 297 307 311 297 286 283 281 278 273 270 267 250 225 219 228
193 200 203 202 199 194 189 185 233 323 315 265 238 224 221 219 204 196 200 199 171 139 133 225 274 289 294 300 300 297 300 293 292 293 288 284 282 278 271 256 238 234 233
204 211 207 205 202 201 201 199 191 200 252 290 274 247 230 210 189 176 151 117 90 104 181 233 261 277 290 301 308 308 308 317 322 313 309 309 304 297 297 285 258 241 241
214 218 216 212 204 203 198 197 200 203 209 239 272 279 235 199 163 140 127 128 164 194 217 235 243 257 303 318 323 327 329 329 330 327 321 310 308 313 305 298 290 281 252
223 226 212 205 206 204 200 196 201 201 210 215 215 215 168 125 131 159 164 166 179 203 215 228 239 246 323 329 337 343 344 344 345 344 333 327 323 328 317 316 313 301 281
222 223 214 202 212 212 203 200 204 202 200 207 217 198 166 162 181 184 181 182 190 203 210 213 209 226 2 354 343 347 345 332 332 332 322 321 336 340 329 321 319 315 307
203 206 206 209 215 213 210 203 196 197 197 196 205 194 179 167 175 179 184 194 193 190 184 166 164 188 221 246 304 338 326 312 318 326 315 308 307 314 325 329 325 316 315
190 197 205 216 207 208 213 207 195 189 193 191 183 177 178 184 183 179 183 185 169 173 166 152 168 207 349 343 185 216 260 271 266 249 269 289 309 317 317 312 313 312 306
192 201 193 187 184 180 194 207 193 181 172 170 161 163 167 170 172 168 166 162 151 166 137 149 167 191 21 7 340 301 271 266 255 245 238 243 274 297 305 304 299 300 299
157 165 167 171 174 183 185 158 150 154 152 154 152 152 154 158 162 165 166 154 146 157 164 127 90 41 15 338 333 337 340 345 339 289 253 227 258 282 298 301 302 306 303
173 188 181 164 160 164 159 154 147 139 138 134 141 150 155 158 162 167 172 173 168 179 197 85 37 31 354 327 320 337 353 355 352 346 310 258 268 298 314 313 311 310 310
Height
1498 1500 1501 1502 1504 1505 1506 1507 1508 1509 1510 1511 1512 1512 1513 1513 1514 1515 1515 1515 1515 1515 1516 1516 1516 1517 1517 1518 1518 1519 1519 1519 1518 1518 1519 1519 1520 1520 1520 1520 1520 1520 1520
1497 1498 1500 1501 1502 1503 1504 1505 1506 1507 1508 1509 1510 1510 1511 1511 1512 1513 1513 1513 1513 1513 1513 1514 1514 1514 1514 1515 1515 1515 1516 1516 1516 1515 1516 1516 1517 1517 1517 1517 1517 1517 1517
1495 1497 1498 1499 1500 1501 1502 1503 1504 1505 1506 1507 1507 1508 1508 1509 1510 1510 1510 1510 1511 1511 1511 1511 1511 1512 1512 1512 1512 1512 1513 1513 1513 1513 1512 1513 1513 1514 1514 1514 1514 1514 1514
1494 1495 1496 1497 1498 1499 1500 1501 1502 1502 1503 1504 1505 1505 1506 1507 1507 1508 1508 1508 1508 1508 1508 1508 1509 1509 1509 1509 1509 1509 1510 1510 1510 1510 1510 1510 1510 1511 1511 1511 1511 1511 1511
1492 1493 1494 1495 1496 1497 1497 1498 1499 1500 1501 1502 1502 1503 1504 1504 1504 1505 1505 1505 1505 1505 1505 1505 1506 1506 1505 1506 1506 1506 1506 1506 1506 1506 1506 1506 1506 1507 1507 1507 1508 1508 1508
1490 1491 1492 1493 1494 1494 1495 1496 1497 1498 1498 1499 1499 1500 1500 1501 1501 1502 1502 1502 1502 1502 1502 1502 1502 1502 1502 1502 1503 1503 1503 1502 1502 1503 1503 1503 1503 1504 1504 1504 1504 1504 1503
1488 1489 1490 1491 1491 1492 1493 1494 1494 1495 1496 1496 1497 1497 1498 1498 1499 1499 1499 1499 1499 1499 1499 1499 1499 1499 1499 1499 1499 1499 1499 1499 1499 1499 1499 1499 1499 1500 1500 1500 1501 1500 1500
1486 1487 1487 1488 1489 1490 1491 1491 1492 1492 1493 1493 1494 1494 1495 1495 1496 1496 1497 1497 1497 1496 1496 1496 1496 1495 1495 1495 1495 1494 1494 1494 1495 1495 1495 1495 1496 1496 1496 1496 1496 1496 1496
1484 1485 1485 1486 1486 1487 1488 1489 1489 1490 1490 1491 1491 1491 1491 1492 1493 1493 1494 1493 1493 1493 1493 1493 1492 1492 1492 1491 1491 1491 1491 1490 1491 1491 1491 1491 1492 1492 1492 1492 1492 1492 1491
1482 1483 1483 1483 1484 1485 1485 1486 1486 1487 1487 1488 1488 1488 1488 1489 1490 1490 1490 1490 1490 1489 1489 1489 1489 1489 1488 1488 1487 1487 1486 1486 1486 1486 1486 1487 1487 1487 1487 1487 1487 1487 1486
1480 1480 1480 1481 1482 1482 1483 1483 1484 1484 1485 1485 1485 1486 1486 1486 1486 1487 1487 1487 1486 1486 1486 1486 1486 1485 1485 1484 1484 1483 1483 1483 1483 1482 1482 1482 1482 1482 1482 1482 1482 1482 1481
1478 1478 1479 1479 1479 1480 1480 1481 1482 1482 1482 1482 1482 1483 1483 1483 1483 1483 1484 1484 1484 1484 1483 1483 1482 1482 1482 1481 1481 1480 1479 1479 1478 1478 1477 1476 1476 1476 1476 1476 1476 1476 1476
1475 1476 1477 1477 1477 1477 1477 1478 1479 1480 1480 1480 1480 1480 1480 1480 1480 1481 1481 1481 1481 1480 1480 1480 1480 1479 1478 1478 1477 1476 1475 1474 1474 1473 1472 1472 1472 1471 1471 1471 1471 1471 1471
1472 1473 1474 1475 1475 1475 1475 1476 1476 1477 1477 1477 1477 1477 1477 1477 1477 1477 1477 1478 1478 1477 1477 1477 1476 1476 1475 1474 1474 1473 1472 1471 1470 1469 1469 1468 1468 1467 1466 1466 1466 1466 1466
1471 1471 1472 1472 1472 1473 1473 1473 1474 1474 1475 1475 1475 1475 1475 1474 1475 1475 1475 1475 1475 1475 1474 1474 1473 1472 1472 1471 1470 1469 1469 1468 1467 1466 1465 1464 1463 1462 1462 1462 1462 1462 1462
1468 1468 1469 1469 1470 1471 1471 1471 1472 1472 1473 1472 1473 1472 1472 1472 1473 1473 1473 1473 1473 1473 1472 1471 1470 1469 1469 1468 1467 1466 1466 1465 1464 1463 1462 1461 1459 1458 1457 1457 1457 1457 1457
1465 1466 1466 1467 1467 1468 1469 1469 1469 1470 1470 1470 1470 1470 1470 1470 1470 1470 1470 1470 1470 1470 1469 1468 1468 1467 1466 1466 1465 1464 1463 1462 1461 1460 1459 1457 1456 1455 1454 1453 1453 1453 1453
1463 1463 1464 1464 1465 1465 1466 1466 1467 1467 1467 1467 1467 1467 1468 1468 1468 1468 1468 1468 1467 1467 1467 1466 1466 1465 1464 1463 1462 1462 1461 1459 1458 1457 1456 1454 1453 1452 1451 1450 1450 1450 1450
1460 1460 1461 1461 1462 1462 1463 1464 1464 1464 1464 1465 1465 1465 1465 1466 1466 1466 1466 1465 1465 1465 1464 1464 1464 1463 1462 1461 1460 1459 1458 1457 1456 1454 1453 1452 1451 1450 1449 1448 1447 1446 1446
1457 1457 1458 1459 1459 1460 1460 1461 1462 1462 1462 1463 1463 1463 1463 1463 1463 1464 1464 1463 1463 1463 1463 1462 1462 1461 1460 1459 1458 1457 1456 1454 1453 1452 1451 1450 1449 1448 1447 1446 1444 1444 1443
1454 1454 1455 1456 1456 1457 1458 1458 1459 1460 1460 1460 1461 1461 1461 1461 1461 1461 1461 1461 1461 1461 1461 1460 1460 1459 1458 1457 1456 1455 1453 1452 1451 1450 1449 1448 1447 1446 1445 1444 1443 1442 1442
1451 1452 1453 1453 1454 1455 1455 1456 1457 1457 1458 1458 1459 1459 1459 1459 1459 1459 1459 1459 1459 1459 1459 1459 1458 1457 1456 1455 1454 1453 1451 1450 1449 1448 1447 1446 1446 1445 1444 1442 1441 1441 1440
1449 1450 1450 1451 1452 1452 1453 1454 1455 1455 1455 1456 1456 1457 1457 1457 1457 1457 1457 1457 1457 1457 1458 1457 1456 1455 1455 1454 1453 1451 1450 1448 1447 1446 1445 1445 1444 1443 1442 1441 1440 1439 1438
1448 1448 1448 1449 1449 1450 1451 1451 1452 1452 1453 1453 1454 1455 1455 1455 1455 1455 1455 1456 1455 1456 1456 1456 1455 1454 1453 1452 1451 1450 1448 1447 1446 1445 1444 1443 1442 1441 1440 1439 1438 1438 1437
1446 1446 1446 1447 1447 1448 1449 1449 1450 1450 1451 1451 1452 1453 1453 1453 1453 1453 1454 1454 1454 1454 1454 1453 1453 1452 1451 1450 1449 1448 1447 1445 1444 1443 1442 1441 1440 1439 1439 1438 1437 1436 1435
1444 1445 1445 1445 1446 1447 1447 1448 1448 1448 1449 1450 1450 1451 1451 1451 1451 1451 1452 1452 1452 1452 1451 1451 1451 1450 1449 1448 1447 1446 1445 1444 1442 1441 1440 1439 1438 1437 1436 1435 1435 1434 1433